Regional Weather Roundup
Issued by NWS

Home | Current Version | Previous Version | Graphics & Text | Print | Product List | Glossary On
Versions: 1 2 3 4 5 6 7 8 9 10 11 12 13 14 15 16 17 18 19 20 21 22 23 24 25 26 27 28 29 30 31 32 33 34 35 36 37 38 39 40 41 42 43 44 45 46 47 48 49 50
000
ASUS44 KMEG 292210
RWRTN
TENNESSEE HOURLY STATE WEATHER ROUNDUP
NATIONAL WEATHER SERVICE MEMPHIS TN
400 PM CST THU JAN 29 2015

TNZ002-004-019-021-049-052-054-088>092-292300-
WEST TENNESSEE

CITY           SKY/WX    TMP DP  RH WIND       PRES   REMARKS
MEMPHIS INTL   CLOUDY    56  38  50 NW14G28   30.20R
NWS MEMPHIS      N/A     54 N/A N/A MISG        N/A
JACKSON        CLOUDY    50  37  61 N20G25    30.19R
DYERSBURG      CLOUDY    46  27  46 N14G22    30.25R
UNION CITY     CLOUDY    41  34  75 N16       30.23R
PARIS          CLOUDY    41  32  70 NW9       30.20R
LEXINGTON      PTSUNNY   50  36  57 N17       30.15R
SAVANNAH       PTSUNNY   61  43  51 N17       30.12R
$$

TNZ008-025-027-028-033-062-065-066-292300-
NORTH MIDDLE TENNESSEE

CITY           SKY/WX    TMP DP  RH WIND       PRES   REMARKS
NASHVILLE      PTSUNNY   54  40  59 NW20G29   30.08R
CLARKSVILLE    CLOUDY    44  33  65 NW20G31   30.16R
SMYRNA         PTSUNNY   56  42  59 N22G28    30.07R
COOKEVILLE     CLOUDY    61  41  48 W7        30.01S
CROSSVILLE     PTSUNNY   56  38  50 SW9G20    30.02R
$$

TNZ061-075-076-078-094-096-097-292300-
SOUTH MIDDLE TENNESSEE

CITY           SKY/WX    TMP DP  RH WIND       PRES   REMARKS
FAYETTEVILLE   SUNNY     57  41  54 MISG      30.07R
TULLAHOMA      PTSUNNY   59  39  47 SW9       30.06R
WINCHESTER     PTSUNNY   57  45  62 W8        30.07R
MCMINNVILLE    PTSUNNY   59  43  55 SW14      30.04R
COLUMBIA       PTSUNNY   63  46  55 W10       30.04R
SHELBYVILLE    CLOUDY    63  45  51 SW9       30.05R
$$

TNZ017-018-042-046-047-292300-
NORTHEAST TENNESSEE

CITY           SKY/WX    TMP DP  RH WIND       PRES   REMARKS
TRI CITIES     PTCLDY    48  32  53 CALM      30.00S
ELIZABETHTON   CLOUDY    46  30  53 NW8       30.00R
$$

TNZ012-013-036-069-073-074-292300-
CENTRAL EAST TENNESSEE

CITY           SKY/WX    TMP DP  RH WIND       PRES   REMARKS
KNOXVILLE      MOSUNNY   54  35  48 SW23G30   30.02R
OAK RIDGE      SUNNY     56  34  43 VRB7G17   30.03R
GATLINBURG     CLEAR     57  34  41 W10       30.01R
MORRISTOWN     CLEAR     55  36  47 W17       30.01R
$$

TNZ083-085-099-292300-
SOUTHEAST TENNESSEE

CITY           SKY/WX    TMP DP  RH WIND       PRES   REMARKS
CHATTANOOGA    PTSUNNY   60  37  42 S12       30.06R
$$

SKY/WX REPORTED AS FAIR MEANS FEW OR NO CLOUDS BELOW
12 THOUSAND FEET.




USA.gov is the U.S. government's official web portal to all federal, state and local government web resources and services.